, OR

(GMT )
Tillamook

Weather History for KTMK - October, 2013

Change the Weather History Date:

Sunday, October 6, 2013

  Actual Average Record
Temperature  
Mean Temperature 54 °F -  
Max Temperature 71 °F - - ()
Min Temperature 37 °F - - ()
Degree Days  
Heating Degree Days 11    
Growing Degree Days 4 (Base 50)    
Moisture  
Dew Point 46 °F    
Average Humidity 80    
Maximum Humidity 100    
Minimum Humidity 29    
Precipitation  
Precipitation 0.01 in - - ()
Sea Level Pressure  
Sea Level Pressure 30.04 in    
Wind  
Wind Speed 3 mph (SSW)    
Max Wind Speed 22 mph    
Max Gust Speed 34 mph    
Visibility 10 miles    
Events Rain    
Averages and records for this station are not official NWS values.
T = Trace of Precipitation, MM = Missing Value Source: NWS Daily Summary

Daily Weather History Graph

Daily Weather History Graph

Search for Another Location

Airport or City:

Trip Planner

Search our weather history database for the weather conditions in past years. The results will help you decide how hot, cold, wet, or windy it might be!

Date:

Astronomy

Oct. 06, 2013 Rise Set
Actual Time 8:20 AM MDT 7:45 PM MDT
Civil Twilight 7:50 AM MDT 8:14 PM MDT
Nautical Twilight 7:16 AM MDT 8:49 PM MDT
Astronomical Twilight 6:41 AM MDT 9:23 PM MDT
Moon 10:17 AM MDT (10/6) 8:41 PM MDT (10/6)
Length of Visible Light 12h 24m
Length of Day
11h 25m
Waxing Crescent, 4% of the Moon is Illuminated
Oct 6
Waxing Crescent
Oct 11
First Quarter
Oct 18
Full
Oct 26
Last Quarter
Nov 3
New

Hourly Weather History & Observations

Time (MDT) Temp. Dew Point Humidity Pressure Visibility Wind Dir Wind Speed Gust Speed Precip Events Conditions
12:15 AM 46.4 °F 44.6 °F 93% 30.13 in 10.0 mi Calm Calm - N/A   Clear
12:35 AM 46.4 °F 44.6 °F 93% 30.13 in 10.0 mi Calm Calm - N/A   Clear
12:55 AM 46.4 °F 44.6 °F 93% 30.13 in 10.0 mi Calm Calm - N/A   Clear
1:15 AM 46.4 °F 44.6 °F 93% 30.13 in 10.0 mi Calm Calm - N/A   Clear
1:35 AM 44.6 °F 44.6 °F 100% 30.12 in 10.0 mi Calm Calm - N/A   Clear
1:55 AM 44.6 °F 42.8 °F 93% 30.12 in 10.0 mi Calm Calm - N/A   Clear
2:15 AM 44.6 °F 42.8 °F 93% 30.12 in 10.0 mi Calm Calm - N/A   Clear
2:35 AM 44.6 °F 44.6 °F 100% 30.12 in 7.0 mi Calm Calm - N/A   Clear
2:55 AM 42.8 °F 42.8 °F 100% 30.11 in 10.0 mi Calm Calm - N/A   Clear
3:15 AM 42.8 °F 42.8 °F 100% 30.11 in 10.0 mi Calm Calm - N/A   Clear
3:35 AM 42.8 °F 42.8 °F 100% 30.11 in 10.0 mi Calm Calm - N/A   Clear
3:55 AM 44.6 °F 42.8 °F 93% 30.10 in 10.0 mi Calm Calm - N/A   Clear
4:15 AM 42.8 °F 41.0 °F 93% 30.09 in 10.0 mi Calm Calm - N/A   Clear
4:35 AM 42.8 °F 41.0 °F 93% 30.08 in 10.0 mi Calm Calm - N/A   Clear
4:55 AM 41.0 °F 41.0 °F 100% 30.07 in 10.0 mi Calm Calm - N/A   Clear
5:15 AM 39.2 °F 39.2 °F 100% 30.07 in 10.0 mi Calm Calm - N/A   Clear
5:35 AM 41.0 °F 41.0 °F 100% 30.06 in 10.0 mi Calm Calm - N/A   Clear
5:55 AM 39.2 °F 39.2 °F 100% 30.05 in 10.0 mi Calm Calm - 0.01 in   Clear
6:15 AM 41.0 °F 39.2 °F 93% 30.05 in 10.0 mi Calm Calm - N/A   Clear
6:35 AM 39.2 °F 37.4 °F 93% 30.04 in 10.0 mi Calm Calm - N/A   Clear
6:55 AM 39.2 °F 39.2 °F 100% 30.04 in 10.0 mi Calm Calm - N/A   Clear
7:15 AM 41.0 °F 39.2 °F 93% 30.03 in 10.0 mi Calm Calm - N/A   Clear
7:35 AM 39.2 °F 37.4 °F 93% 30.03 in 10.0 mi Calm Calm - N/A   Clear
7:55 AM 39.2 °F 37.4 °F 93% 30.03 in 10.0 mi Calm Calm - N/A   Clear
8:15 AM 39.2 °F 37.4 °F 93% 30.03 in 10.0 mi Calm Calm - N/A   Clear
8:35 AM 37.4 °F 37.4 °F 100% 30.03 in 10.0 mi Calm Calm - N/A   Clear
8:55 AM 37.4 °F 37.4 °F 100% 30.02 in 10.0 mi Calm Calm - N/A   Clear
9:15 AM 41.0 °F 39.2 °F 93% 30.02 in 10.0 mi Calm Calm - N/A   Clear
9:35 AM 42.8 °F 41.0 °F 93% 30.02 in 10.0 mi Calm Calm - N/A   Clear
9:55 AM 44.6 °F 44.6 °F 100% 30.02 in 10.0 mi Calm Calm - N/A   Clear
10:15 AM 48.2 °F 44.6 °F 87% 30.02 in 10.0 mi Calm Calm - N/A   Clear
10:35 AM 50.0 °F 46.4 °F 87% 30.02 in 10.0 mi Calm Calm - N/A   Clear
10:55 AM 51.8 °F 48.2 °F 88% 30.02 in 10.0 mi Calm Calm - N/A   Clear
11:15 AM 55.4 °F 48.2 °F 77% 30.03 in 10.0 mi Calm Calm - N/A   Clear
11:35 AM 59.0 °F 50.0 °F 72% 30.03 in 10.0 mi Calm Calm - N/A   Clear
11:55 AM 60.8 °F 50.0 °F 68% 30.02 in 10.0 mi Calm Calm - N/A   Clear
12:15 PM 62.6 °F 50.0 °F 63% 30.02 in 10.0 mi Calm Calm - N/A   Clear
12:35 PM 68.0 °F 50.0 °F 52% 30.01 in 10.0 mi Calm Calm - N/A   Clear
12:55 PM 71.6 °F 41.0 °F 33% 30.01 in 10.0 mi South 15.0 mph 18.4 mph N/A   Clear
1:15 PM 71.6 °F 37.4 °F 29% 30.01 in 10.0 mi SSW 10.4 mph 16.1 mph N/A   Clear
1:35 PM 68.0 °F 41.0 °F 37% 30.02 in 10.0 mi SW 16.1 mph - N/A   Clear
1:55 PM 68.0 °F 44.6 °F 43% 30.01 in 10.0 mi SW 13.8 mph 23.0 mph N/A   Clear
2:15 PM 68.0 °F 46.4 °F 46% 30.01 in 10.0 mi SW 13.8 mph - N/A   Clear
2:35 PM 68.0 °F 48.2 °F 49% 30.01 in 10.0 mi WSW 11.5 mph - N/A   Clear
2:55 PM 68.0 °F 50.0 °F 52% 30.00 in 10.0 mi SW 15.0 mph 21.9 mph N/A   Clear
3:15 PM 68.0 °F 50.0 °F 52% 30.00 in 10.0 mi WSW 8.1 mph - N/A   Clear
3:35 PM 68.0 °F 51.8 °F 56% 30.00 in 10.0 mi WSW 13.8 mph - N/A   Clear
3:55 PM 66.2 °F 51.8 °F 60% 30.01 in 10.0 mi WSW 16.1 mph 23.0 mph N/A   Clear
4:15 PM 64.4 °F 51.8 °F 64% 30.01 in 10.0 mi SW 12.7 mph 20.7 mph N/A   Clear
4:35 PM 64.4 °F 51.8 °F 64% 30.01 in 10.0 mi WSW 15.0 mph 21.9 mph N/A   Clear
4:55 PM 62.6 °F 53.6 °F 72% 30.02 in 10.0 mi SW 17.3 mph 28.8 mph N/A   Clear
5:15 PM 62.6 °F 53.6 °F 72% 30.03 in 10.0 mi SW 21.9 mph 31.1 mph N/A   Clear
5:35 PM 60.8 °F 51.8 °F 72% 30.03 in 10.0 mi SW 13.8 mph 34.5 mph N/A   Clear
5:55 PM 60.8 °F 51.8 °F 72% 30.03 in 10.0 mi SSW 19.6 mph 25.3 mph N/A   Clear
6:15 PM 60.8 °F 50.0 °F 68% 30.03 in 10.0 mi South 11.5 mph 19.6 mph N/A   Clear
6:35 PM 59.0 °F 50.0 °F 72% 30.03 in 10.0 mi South 9.2 mph - N/A   Scattered Clouds
6:55 PM 60.8 °F 50.0 °F 68% 30.02 in 10.0 mi Calm Calm - N/A   Mostly Cloudy
7:15 PM 59.0 °F 50.0 °F 72% 30.02 in 10.0 mi Calm Calm - N/A   Mostly Cloudy
7:35 PM 59.0 °F 50.0 °F 72% 30.01 in 10.0 mi Calm Calm - N/A   Overcast
7:55 PM 59.0 °F 50.0 °F 72% 30.01 in 10.0 mi South 6.9 mph - N/A   Overcast
8:15 PM 59.0 °F 50.0 °F 72% 30.01 in 10.0 mi South 8.1 mph - N/A   Mostly Cloudy
8:35 PM 59.0 °F 50.0 °F 72% 30.01 in 10.0 mi South 9.2 mph - N/A   Scattered Clouds
8:55 PM 57.2 °F 50.0 °F 77% 30.00 in 10.0 mi South 10.4 mph - N/A   Clear
9:15 PM 57.2 °F 50.0 °F 77% 30.00 in 10.0 mi Calm Calm - N/A   Clear
9:35 PM 55.4 °F 50.0 °F 82% 30.00 in 10.0 mi Calm Calm - N/A   Scattered Clouds
9:55 PM 57.2 °F 50.0 °F 77% 30.00 in 10.0 mi Calm Calm - N/A   Scattered Clouds
10:15 PM 57.2 °F 50.0 °F 77% 30.00 in 10.0 mi SSW 5.8 mph - N/A   Mostly Cloudy
10:35 PM 57.2 °F 50.0 °F 77% 29.99 in 10.0 mi SSW 12.7 mph 17.3 mph N/A   Overcast
10:55 PM 59.0 °F 51.8 °F 77% 30.00 in 10.0 mi SSW 12.7 mph 16.1 mph N/A   Overcast
11:15 PM 55.4 °F 53.6 °F 94% 30.00 in 7.0 mi South 10.4 mph - N/A Rain Light Rain
11:35 PM 55.4 °F 53.6 °F 94% 30.01 in 4.0 mi South 8.1 mph - N/A   Heavy Drizzle
11:55 PM 55.4 °F 53.6 °F 94% 30.01 in 4.0 mi South 8.1 mph - N/A   Heavy Drizzle